Simultaneous Nadir Overpasses (SNOs) Predictions

Prediction of SNOs between NOAA-20 and LANDSAT-8 Satellite Orbit:

Table of predicted SNOs for the next 14.0 days since TLE Epoch: 4/13/2024
Index Date (NOAA-20) Time (NOAA-20) Lat,Lon (NOAA-20) SZA (NOAA-20 ) Date (LANDSAT-8) Time (LANDSAT-8) Lat,Lon (LANDSAT-8) SZA (LANDSAT-8 ) Distance(km) Time Diff (sec)
1 04/14/2024 13:38:29 70.26, -28.39 60.49 04/14/2024 13:39:36 70.26, -28.45 60.48 1.97 67
2 04/14/2024 14:29:11 -70.16, 139.08 119.63 04/14/2024 14:29:06 -70.15, 139.02 119.65 2.73 5
3 04/14/2024 15:19:49 69.72, -52.95 59.90 04/14/2024 15:18:38 69.77, -53.86 59.98 35.61 71
4 04/17/2024 05:55:38 70.23, 87.36 59.50 04/17/2024 05:56:03 70.25, 87.42 59.52 3.11 25
5 04/17/2024 06:46:20 -70.12,-105.16 120.62 04/17/2024 06:45:33 -70.14,-105.11 120.61 2.63 47
6 04/19/2024 21:22:02 -70.26, 35.70 121.38 04/19/2024 21:23:04 -70.27, 35.68 121.39 0.74 62
7 04/19/2024 22:12:46 70.15,-156.81 58.49 04/19/2024 22:12:31 70.16,-156.83 58.50 0.97 15
8 04/19/2024 23:03:19 -69.56, 11.38 122.13 04/19/2024 23:02:09 -69.61, 10.04 122.05 51.99 70
9 04/22/2024 12:48:41 71.04, -17.16 58.53 04/22/2024 12:49:48 70.97, -15.02 58.40 78.17 67
10 04/22/2024 13:39:09 -70.19, 151.52 122.37 04/22/2024 13:39:30 -70.20, 151.48 122.36 2.25 21
11 04/22/2024 14:29:53 70.08, -41.00 57.51 04/22/2024 14:28:57 70.09, -41.04 57.52 1.89 56
12 04/25/2024 05:05:35 70.24, 99.83 56.82 04/25/2024 05:06:26 70.27, 99.83 56.84 3.18 51
13 04/25/2024 05:56:18 -70.18, -92.75 123.26 04/25/2024 05:55:56 -70.17, -92.68 123.27 2.75 22



Historial Predications of SNOs between NOAA-20 and LANDSAT-8
